Regional Weather Roundup
Issued by NWS Kansas City/Pleasant Hill, MO

Home | Current Version | Previous Version | Graphics & Text | Print | Product List | Glossary Off
Versions: 1 2 3 4 5 6 7 8 9 10 11 12 13 14 15 16 17 18 19 20 21 22 23 24 25 26 27 28 29 30 31 32 33 34 35 36 37 38 39 40 41 42 43 44 45 46 47 48 49 50

000
ASUS43 KEAX 280811
RWREAX

WEATHER ROUNDUP FOR EASTERN KANSAS AND NORTHWEST MISSOURI
NATIONAL WEATHER SERVICE KANSAS CITY/PLEASANT HILL MO
300 AM CDT TUE APR 28 2015

KSZ040-057-103>105-MOZ028-029-037-043-280900-
...KANSAS CITY METROPOLITAN AREA...

CITY           SKY/WX    TMP DP  RH WIND       PRES   REMARKS
K.C. INTL      PTCLDY    48  36  63 NE7       30.13F
K.C. DOWNTOWN  MOCLDY    50  40  68 CALM      30.13S
LEES SUMMIT    MOCLDY    49  38  65 N5        30.13S
OLATHE - IXD   CLOUDY    46  38  73 NE6       30.12F
OLATHE - OJC   CLOUDY    50  37  61 NE6       30.11F
LAWRENCE       MOCLDY    45  37  73 NE6       30.13F

$$

MOZ001>008-011>017-020>025-030>033-038>040-044>046-053-054-280900-
...NORTHERN AND CENTRAL MISSOURI...

CITY           SKY/WX    TMP DP  RH WIND       PRES   REMARKS
ST. JOSEPH     PTCLDY    43  36  76 CALM      30.15S
MOSBY          MOSUNNY   41  39  93 CALM      30.13S
WARRENSBURG    MOCLDY    45  37  76 N5        30.12S
WHITEMAN AFB   PTCLDY    43  37  79 CALM      30.10F
CLINTON        MOCLDY    45  39  81 NE3       30.11S
SEDALIA        PTCLDY    48  36  63 NE5       30.12F
WARSAW         NOT AVBL
CHILLICOTHE      N/A     45  38  76 CALM      30.15S
KIRKSVILLE     CLEAR     41  39  93 NW3       30.14F

$$

MOZ041-047>049-056>058-063>065-088>090-097-280900-
...EASTERN AND SOUTHERN MISSOURI...

CITY           SKY/WX    TMP DP  RH WIND       PRES   REMARKS
ST. LOUIS INTL PTCLDY    50  37  61 CALM      30.11F
SPIRIT OF STL  CLEAR     39  38  96 CALM      30.11F
COLUMBIA       PTCLDY    50  37  61 NE5       30.11S
JEFFERSON CITY FAIR      43  38  82 CALM      30.11F
ROLLA          CLEAR     42  35  76 NE3       30.08S
OSAGE BEACH    CLEAR     46  36  66 NE3       30.10S
SPRINGFIELD    PTCLDY    49  36  61 NE6       30.06F
BRANSON        MOCLDY    50  36  57 CALM      30.06S
JOPLIN         MOCLDY    50  38  63 NE6       30.06F
WEST PLAINS    PTCLDY    47  36  65 NE8       30.05F

$$

IAZ060-094-KSZ022-034>040-054-083-096-NEZ052-066-093-280900-
...KANSAS...SOUTHEAST NEBRASKA AND IOWA...

CITY           SKY/WX    TMP DP  RH WIND       PRES   REMARKS
TOPEKA         MOCLDY    44  39  82 CALM      30.14S
MANHATTAN      MOCLDY    38  37  97 CALM      30.15F
EMPORIA        CLOUDY    48  39  71 N3        30.11F
CHANUTE        CLOUDY    51  40  65 N7        30.09F
WICHITA        CLOUDY    51  38  60 N5        30.11F
OMAHA          MOCLDY    41  38  89 N6        30.18F
LINCOLN        CLEAR     41  36  82 N5        30.19F
FALLS CITY     PTCLDY    50  34  54 N3        30.15F
LAMONI         CLEAR     50  34  54 N5        30.15S
DES MOINES     PTCLDY    46  39  76 NW3       30.16S

$$



USA.gov is the U.S. government's official web portal to all federal, state and local government web resources and services.